Change the Weather History Date:

Saturday, August 9, 2014

  Actual Average (KGON) Record (KGON)
Temperature  
Mean Temperature 72 °F -  
Max Temperature 84 °F 81 °F 90 °F (1968)
Min Temperature 61 °F 64 °F 51 °F (1964)
Cooling Degree Days 6    
Growing Degree Days 22 (Base 50)    
Moisture  
Dew Point 59 °F    
Average Humidity 66    
Maximum Humidity 90    
Minimum Humidity 39    
Precipitation  
Precipitation 0.00 in - - ()
Sea Level Pressure  
Sea Level Pressure 30.07 in    
Wind  
Wind Speed 3 mph (NNE)    
Max Wind Speed 9 mph    
Max Gust Speed -    
Visibility 10 miles    
Events      
Averages and records for this station are not official NWS values.
T = Trace of Precipitation, MM = Missing Value Source: NWS Daily Summary

Daily Weather History Graph

Daily Weather History Graph

Search for Another Location

Airport or City:

Trip Planner

Search our weather history database for the weather conditions in past years. The results will help you decide how hot, cold, wet, or windy it might be!

Date:

Astronomy

Aug. 09, 2014 Rise Set
Actual Time 5:50 AM EDT 7:54 PM EDT
Civil Twilight 5:19 AM EDT 8:24 PM EDT
Nautical Twilight 4:42 AM EDT 9:01 PM EDT
Astronomical Twilight 4:02 AM EDT 9:42 PM EDT
Moon 6:53 PM EDT (8/9) 4:27 AM EDT (8/9)
Length of Visible Light 15h 04m
Length of Day
14h 04m
Waxing Gibbous, 98% of the Moon is Illuminated
Aug 9
Waxing Gibbous
Aug 10
Full
Aug 17
Last Quarter
Aug 25
New
Sep 2
First Quarter

Hourly Weather History & Observations

Time (EDT) Temp. Heat Index Dew Point Humidity Pressure Visibility Wind Dir Wind Speed Gust Speed Precip Events Conditions
1:53 AM 64.0 °F - 55.9 °F 75% 30.04 in 10.0 mi Calm Calm - N/A   Clear
2:53 AM 64.0 °F - 55.9 °F 75% 30.04 in 10.0 mi Calm Calm - N/A   Clear
3:53 AM 61.0 °F - 55.0 °F 81% 30.04 in 10.0 mi NNE 3.5 mph - N/A   Clear
4:53 AM 61.0 °F - 55.0 °F 81% 30.05 in 10.0 mi Calm Calm - N/A   Clear
5:53 AM 61.0 °F - 55.0 °F 81% 30.07 in 10.0 mi Calm Calm - N/A   Clear
6:53 AM 64.0 °F - 55.9 °F 75% 30.08 in 10.0 mi Calm Calm - N/A   Clear
7:53 AM 70.0 °F - 57.0 °F 63% 30.09 in 10.0 mi North 6.9 mph - N/A   Clear
8:53 AM 73.9 °F - 57.0 °F 55% 30.09 in 10.0 mi Variable 6.9 mph - N/A   Clear
9:53 AM 78.1 °F - 57.0 °F 48% 30.09 in 10.0 mi North 8.1 mph - N/A   Clear
10:53 AM 80.1 °F 80.4 °F 57.0 °F 45% 30.09 in 10.0 mi NW 4.6 mph - N/A   Clear
11:53 AM 82.9 °F 82.1 °F 55.9 °F 39% 30.08 in 10.0 mi NNW 9.2 mph - N/A   Clear
1:53 PM 82.0 °F 82.0 °F 57.9 °F 44% 30.06 in 10.0 mi SW 8.1 mph - N/A   Mostly Cloudy
2:53 PM 81.0 °F 81.6 °F 60.1 °F 49% 30.05 in 10.0 mi SW 5.8 mph - N/A   Scattered Clouds
3:53 PM 82.0 °F 81.4 °F 55.0 °F 39% 30.05 in 10.0 mi South 6.9 mph - N/A   Mostly Cloudy
4:53 PM 77.0 °F - 62.1 °F 60% 30.06 in 10.0 mi SSE 8.1 mph - N/A   Overcast
5:53 PM 75.9 °F - 63.0 °F 64% 30.06 in 10.0 mi SSE 4.6 mph - N/A   Partly Cloudy
6:53 PM 73.0 °F - 64.9 °F 76% 30.07 in 10.0 mi SSE 4.6 mph - N/A   Overcast
7:53 PM 72.0 °F - 64.9 °F 78% 30.07 in 10.0 mi Calm Calm - N/A   Mostly Cloudy
8:53 PM 70.0 °F - 64.9 °F 84% 30.08 in 10.0 mi NE 3.5 mph - N/A   Scattered Clouds
9:53 PM 69.1 °F - 64.9 °F 87% 30.09 in 10.0 mi NE 4.6 mph - N/A   Mostly Cloudy
11:53 PM 66.0 °F - 63.0 °F 90% 30.11 in 8.0 mi Calm Calm - N/A   Clear